Atka, AK

6:57 AM HST on December 12, 2017 (GMT -1000)
Atka

Weather History for PAAK - December, 2012

Change the Weather History Date:

Tuesday, December 18, 2012

  Actual Average (PADK) Record (PADK)
Temperature  
Mean Temperature 32 °F -  
Max Temperature 37 °F 38 °F 47 °F (1964)
Min Temperature 28 °F 31 °F 19 °F (1993)
Degree Days  
Heating Degree Days 32    
Moisture  
Dew Point -15 °F    
Average Humidity 12    
Maximum Humidity 13    
Minimum Humidity 11    
Precipitation  
Precipitation 0.00 in - - ()
Sea Level Pressure  
Sea Level Pressure 30.50 in    
Wind  
Wind Speed 16 mph (WNW)    
Max Wind Speed 24 mph    
Max Gust Speed 37 mph    
Visibility 10 miles    
Events      
Averages and records for this station are not official NWS values.
T = Trace of Precipitation, MM = Missing Value Source: NWS Daily Summary

Daily Weather History Graph

Daily Weather History Graph

Search for Another Location

Airport or City:

Trip Planner

Search our weather history database for the weather conditions in past years. The results will help you decide how hot, cold, wet, or windy it might be!

Date:

Astronomy

Dec. 18, 2012 Rise Set
Actual Time 9:42 AM HST 5:25 PM HST
Civil Twilight 9:01 AM HST 6:06 PM HST
Nautical Twilight 8:17 AM HST 6:50 PM HST
Astronomical Twilight 7:35 AM HST 7:31 PM HST
Moon 12:45 PM HST (12/18) No Moon Set
Length of Visible Light 9h 05m
Length of Day
7h 42m
Waxing Crescent, 36% of the Moon is Illuminated
Dec 18
Waxing Crescent
Dec 19
First Quarter
Dec 28
Full
Jan 4
Last Quarter
Jan 11
New

Hourly Weather History & Observations

Time (HST) Temp. Windchill Dew Point Humidity Pressure Visibility Wind Dir Wind Speed Gust Speed Precip Events Conditions
12:16 AM 32.0 °F 22.1 °F -16.6 °F 12% 30.20 in 10.0 mi WNW 13.8 mph 25.3 mph N/A   Overcast
12:36 AM 32.0 °F 20.5 °F -16.6 °F 12% 30.22 in 10.0 mi NW 18.4 mph 32.2 mph N/A   Overcast
12:56 AM 32.0 °F 22.1 °F -16.6 °F 12% 30.23 in 10.0 mi WNW 13.8 mph 24.2 mph N/A   Overcast
1:16 AM 32.0 °F 20.8 °F -16.6 °F 12% 30.25 in 10.0 mi WNW 17.3 mph 23.0 mph N/A   Overcast
1:36 AM 32.0 °F 19.8 °F -16.6 °F 12% 30.25 in 10.0 mi WNW 20.7 mph 27.6 mph N/A   Overcast
2:16 AM 32.0 °F 18.9 °F -16.6 °F 12% 30.28 in 7.0 mi West 24.2 mph 36.8 mph N/A   Mostly Cloudy
2:36 AM 30.2 °F 19.8 °F -16.6 °F 13% 30.28 in 10.0 mi West 13.8 mph - N/A   Overcast
2:56 AM 30.2 °F 18.5 °F -16.6 °F 13% 30.29 in 10.0 mi WNW 17.3 mph 24.2 mph N/A   Mostly Cloudy
3:16 AM 30.2 °F 19.3 °F -16.6 °F 13% 30.30 in 10.0 mi WNW 15.0 mph - N/A   Scattered Clouds
3:36 AM 32.0 °F 21.2 °F -16.6 °F 12% 30.31 in 10.0 mi WNW 16.1 mph 20.7 mph N/A   Mostly Cloudy
3:56 AM 32.0 °F 20.1 °F -16.6 °F 12% 30.31 in 10.0 mi NW 19.6 mph 24.2 mph N/A   Mostly Cloudy
4:16 AM 32.0 °F 21.2 °F -16.6 °F 12% 30.33 in 10.0 mi WNW 16.1 mph 23.0 mph N/A   Overcast
4:36 AM 32.0 °F 20.1 °F -16.6 °F 12% 30.35 in 7.0 mi WNW 19.6 mph 32.2 mph N/A   Overcast
4:56 AM 28.4 °F 17.0 °F -16.6 °F 13% 30.35 in 10.0 mi WNW 15.0 mph 20.7 mph N/A   Mostly Cloudy
5:16 AM 30.2 °F 19.3 °F -16.6 °F 13% 30.36 in 10.0 mi WNW 15.0 mph 24.2 mph N/A   Mostly Cloudy
5:36 AM 32.0 °F 20.8 °F -16.6 °F 12% 30.37 in 10.0 mi WNW 17.3 mph 25.3 mph N/A   Mostly Cloudy
5:56 AM 30.2 °F 19.8 °F -16.6 °F 13% 30.37 in 10.0 mi WNW 13.8 mph - N/A   Mostly Cloudy
6:16 AM 30.2 °F 17.8 °F -16.6 °F 13% 30.38 in 10.0 mi WNW 19.6 mph 26.5 mph N/A   Scattered Clouds
6:36 AM 32.0 °F 20.8 °F -16.6 °F 12% 30.39 in 10.0 mi WNW 17.3 mph 24.2 mph N/A   Scattered Clouds
6:56 AM 32.0 °F 19.5 °F -16.6 °F 12% 30.40 in 10.0 mi WNW 21.9 mph 26.5 mph N/A   Mostly Cloudy
7:16 AM 30.2 °F 19.3 °F -16.6 °F 13% 30.42 in 10.0 mi WNW 15.0 mph 24.2 mph N/A   Scattered Clouds
7:36 AM 30.2 °F 18.5 °F -16.6 °F 13% 30.42 in 10.0 mi WNW 17.3 mph 27.6 mph N/A   Scattered Clouds
7:56 AM 32.0 °F 20.8 °F -16.6 °F 12% 30.44 in 10.0 mi WNW 17.3 mph 24.2 mph N/A   Mostly Cloudy
8:16 AM 32.0 °F 20.5 °F -16.6 °F 12% 30.44 in 10.0 mi NW 18.4 mph 27.6 mph N/A   Mostly Cloudy
8:36 AM 30.2 °F 17.8 °F -16.6 °F 13% 30.46 in 3.0 mi NW 19.6 mph 31.1 mph N/A   Mostly Cloudy
8:56 AM 30.2 °F 18.1 °F -16.6 °F 13% 30.46 in 10.0 mi WNW 18.4 mph 24.2 mph N/A   Scattered Clouds
9:16 AM 30.2 °F 19.8 °F -16.6 °F 13% 30.48 in 10.0 mi WNW 13.8 mph 24.2 mph N/A   Mostly Cloudy
9:36 AM 32.0 °F 20.8 °F -16.6 °F 12% 30.48 in 10.0 mi WNW 17.3 mph 20.7 mph N/A   Overcast
9:56 AM 32.0 °F 19.8 °F -16.6 °F 12% 30.49 in 10.0 mi WNW 20.7 mph 31.1 mph N/A   Mostly Cloudy
10:16 AM 32.0 °F 20.5 °F -16.6 °F 12% 30.51 in 10.0 mi WNW 18.4 mph 24.2 mph N/A   Partly Cloudy
10:36 AM 30.2 °F 18.9 °F -16.6 °F 13% 30.51 in 10.0 mi WNW 16.1 mph 21.9 mph N/A   Partly Cloudy
10:56 AM 32.0 °F 20.1 °F -16.6 °F 12% 30.51 in 10.0 mi WNW 19.6 mph 26.5 mph N/A   Clear
11:16 AM 33.8 °F 23.2 °F -14.8 °F 12% 30.52 in 10.0 mi WNW 17.3 mph 24.2 mph N/A   Clear
11:36 AM 33.8 °F 24.3 °F -14.8 °F 12% 30.52 in 10.0 mi NW 13.8 mph - N/A   Scattered Clouds
11:56 AM 33.8 °F 23.5 °F -14.8 °F 12% 30.53 in 10.0 mi WNW 16.1 mph 20.7 mph N/A   Mostly Cloudy
12:16 PM 35.6 °F 26.6 °F -14.8 °F 11% 30.54 in 10.0 mi WNW 13.8 mph - N/A   Mostly Cloudy
12:36 PM 35.6 °F 25.9 °F -13.0 °F 12% 30.54 in 10.0 mi WNW 16.1 mph - N/A   Overcast
12:56 PM 35.6 °F 25.2 °F -13.0 °F 12% 30.55 in 10.0 mi WNW 18.4 mph 25.3 mph N/A   Scattered Clouds
1:16 PM 35.6 °F 26.2 °F - N/A% 30.56 in 10.0 mi WNW 15.0 mph 20.7 mph N/A   Clear
1:36 PM 37.4 °F 29.3 °F -13.0 °F 11% 30.57 in 10.0 mi West 12.7 mph - N/A   Mostly Cloudy
1:56 PM 37.4 °F 27.5 °F -13.0 °F 11% 30.59 in 10.0 mi West 18.4 mph 23.0 mph N/A   Overcast
2:16 PM 37.4 °F 27.8 °F -13.0 °F 11% 30.59 in 10.0 mi WNW 17.3 mph - N/A   Overcast
2:36 PM 35.6 °F 26.6 °F -13.0 °F 12% 30.59 in 10.0 mi West 13.8 mph 23.0 mph N/A   Overcast
2:56 PM 37.4 °F 29.3 °F -11.2 °F 12% 30.58 in 10.0 mi West 12.7 mph 20.7 mph N/A   Mostly Cloudy
3:16 PM 37.4 °F 29.3 °F -13.0 °F 11% 30.58 in 10.0 mi West 12.7 mph 23.0 mph N/A   Partly Cloudy
3:36 PM 35.6 °F 25.5 °F -13.0 °F 12% 30.58 in 10.0 mi West 17.3 mph 23.0 mph N/A   Partly Cloudy
3:56 PM 35.6 °F 27.5 °F -13.0 °F 12% 30.58 in 10.0 mi West 11.5 mph - N/A   Partly Cloudy
4:16 PM 35.6 °F 28.6 °F -13.0 °F 12% 30.58 in 10.0 mi WSW 9.2 mph - N/A   Mostly Cloudy
4:36 PM 35.6 °F 28.6 °F -13.0 °F 12% 30.59 in 10.0 mi West 9.2 mph 16.1 mph N/A   Overcast
4:56 PM 35.6 °F 25.5 °F -13.0 °F 12% 30.60 in 6.0 mi West 17.3 mph 28.8 mph N/A   Overcast
6:16 PM 35.6 °F 25.5 °F -14.8 °F 11% 30.62 in 10.0 mi West 17.3 mph 20.7 mph N/A   Unknown
6:36 PM 35.6 °F 25.2 °F -13.0 °F 12% 30.62 in 10.0 mi NW 18.4 mph 25.3 mph N/A   Mostly Cloudy
6:56 PM 35.6 °F 25.2 °F -13.0 °F 12% 30.63 in 10.0 mi WNW 18.4 mph 24.2 mph N/A   Mostly Cloudy
7:16 PM 35.6 °F 25.5 °F -13.0 °F 12% 30.63 in 10.0 mi WNW 17.3 mph 24.2 mph N/A   Mostly Cloudy
7:36 PM 35.6 °F 25.5 °F -13.0 °F 12% 30.64 in 10.0 mi West 17.3 mph 28.8 mph N/A   Overcast
7:56 PM 33.8 °F 25.3 °F -14.8 °F 12% 30.65 in 10.0 mi West 11.5 mph - N/A   Mostly Cloudy
8:16 PM 35.6 °F 27.1 °F -14.8 °F 11% 30.65 in 10.0 mi West 12.7 mph - N/A   Overcast
8:36 PM 35.6 °F 28.0 °F -13.0 °F 12% 30.65 in 10.0 mi WNW 10.4 mph - N/A   Overcast
8:56 PM 33.8 °F 25.3 °F -14.8 °F 12% 30.66 in 10.0 mi WNW 11.5 mph - N/A   Mostly Cloudy
9:16 PM 33.8 °F 25.8 °F -14.8 °F 12% 30.65 in 10.0 mi WNW 10.4 mph - N/A   Mostly Cloudy
9:36 PM 35.6 °F 28.6 °F - N/A% 30.65 in 10.0 mi WNW 9.2 mph - N/A   Overcast
9:56 PM 35.6 °F 29.2 °F -14.8 °F 11% 30.66 in 10.0 mi WNW 8.1 mph - N/A   Overcast
10:16 PM 33.8 °F 26.4 °F -14.8 °F 12% 30.65 in 10.0 mi NW 9.2 mph - N/A   Overcast
10:36 PM 32.0 °F 26.4 °F -14.8 °F 13% 30.65 in 10.0 mi WNW 5.8 mph - N/A   Scattered Clouds
10:56 PM 30.2 °F 25.4 °F -16.6 °F 13% 30.66 in 10.0 mi WNW 4.6 mph - N/A   Partly Cloudy
11:16 PM 30.2 °F 25.4 °F -18.4 °F 11% 30.67 in 10.0 mi NW 4.6 mph - N/A   Clear
11:36 PM 28.4 °F - -18.4 °F 12% 30.67 in 10.0 mi Calm Calm - N/A   Clear
11:56 PM 28.4 °F - -18.4 °F 12% 30.67 in 10.0 mi Calm Calm - N/A   Clear